Location: ASU Dark Sky Observatory
(36.2504°N, 81.4125°W)
Time: 03:02:40
(UTC-04:00)

Amateur Radio Satellites - All Passes

Search period start: 03 September 2014 02:32
Search period end: 04 September 2014 02:32
Location: ASU Dark Sky Observatory, 36.2504°N, 81.4125°W

Satellite Date Start Highest point End Downlink Frequencies (MHz)
Time Altitude Azimuth
Oscar 10/S400 03 Sep 02:32:48 03:42:38 50° 223° (SW) 10:15:23 145.825 - 145.975 CW/USB, Beacon 145.810 USB
Oscar 16 03 Sep 02:44:23 02:49:31 57° 101° (E) 02:54:35 437.025 USB, Beacon 2401.1428
ITAMSAT 1 03 Sep 02:49:45 02:53:59 25° 96° (E) 02:58:11 435.822 SSB
Uribyol 2 03 Sep 02:58:29 03:03:08 33° 97° (E) 03:07:47 436.500 FM
TMSAT-1 03 Sep 03:18:12 03:21:09 15° 92° (E) 03:24:04 436.925 FM
AO-27 03 Sep 03:19:07 03:24:10 50° 100° (E) 03:29:12 436.795 MHz FM
Sapphire 03 Sep 03:21:38 03:26:24 32° 251° (WSW) 03:31:08 437.095 MHz 1200 baud AX-25 AFSK
OPAL 03 Sep 03:42:59 03:45:18 13° 60° (ENE) 03:47:37 ?
AO-Echo 03 Sep 03:47:44 03:52:26 71° 285° (WNW) 03:57:09 ?
SO-50 03 Sep 03:48:24 03:52:47 58° 303° (WNW) 03:57:17 436.795 FM
Oscar 19 03 Sep 03:48:27 03:53:08 35° 290° (WNW) 03:57:48 437.125 CW, 437.150 USB
PCSat 03 Sep 03:52:05 03:55:12 16° 256° (WSW) 03:58:19 145.825 MHz
JAS-1B 03 Sep 03:52:28 03:58:55 85° 104° (ESE) 04:04:39 435.800 - 435.900 CW/SSB
UOSAT-12 03 Sep 03:52:49 03:53:02 10° 106° (ESE) 03:53:15 437.025 FM, 437.400 FM
Gurwin Techsat 1B 03 Sep 04:06:54 04:12:11 66° 101° (ESE) 04:17:27 435.225 FM
Oscar 16 03 Sep 04:25:14 04:28:21 16° 296° (WNW) 04:31:27 437.025 USB, Beacon 2401.1428
ITAMSAT 1 03 Sep 04:28:50 04:33:28 34° 290° (WNW) 04:38:07 435.822 SSB
AO-7 03 Sep 04:35:54 04:42:12 24° 95° (E) 04:48:26 29.400 - 29.500 MHz
Uribyol 2 03 Sep 04:38:09 04:42:27 27° 292° (WNW) 04:46:44 436.500 FM
Uosat F 03 Sep 04:42:38 04:45:50 17° 94° (E) 04:49:00 435.120 FM
TMSAT-1 03 Sep 04:56:12 05:01:24 58° 287° (WNW) 05:06:34 436.925 FM
AO-27 03 Sep 04:59:50 05:03:15 18° 295° (WNW) 05:06:40 436.795 MHz FM
OPAL 03 Sep 05:18:28 05:23:30 72° 256° (WSW) 05:28:39 ?
UOSAT-12 03 Sep 05:27:54 05:32:29 73° 301° (WNW) 05:37:11 437.025 FM, 437.400 FM
JAS-1B 03 Sep 05:46:00 05:48:24 12° 305° (NW) 05:50:41 435.800 - 435.900 CW/SSB
Gurwin Techsat 1B 03 Sep 05:48:45 05:51:33 15° 297° (WNW) 05:54:21 435.225 FM
Uosat F 03 Sep 06:20:02 06:24:49 47° 288° (WNW) 06:29:36 435.120 FM
AO-7 03 Sep 06:27:17 06:35:28 67° 291° (WNW) 06:43:37 29.400 - 29.500 MHz
Hamsat 03 Sep 06:39:18 06:42:57 26° 96° (E) 06:46:32 145.90 MHz
RS-15 03 Sep 06:47:22 06:57:16 39° 107° (ESE) 07:06:58 29.354 - 29.394 USB, Beacon 29.352 USB
STRAND 1 03 Sep 07:08:24 07:13:21 55° 73° (ENE) 07:18:20 ?
JAS-2 03 Sep 07:19:37 07:24:59 68° 102° (ESE) 07:30:54 435.800 - 435.900 CW/SSB, 435.910 FM
Saudisat 1A 03 Sep 07:24:02 07:28:26 64° 58° (ENE) 07:32:47 436.775 MHz
KITSAT 1 03 Sep 07:37:14 07:44:07 30° 48° (NE) 07:50:57 435.175 FM
SO-67 03 Sep 08:08:40 08:11:53 35° 98° (E) 08:15:04 435.3500 MHz FM
Hamsat 03 Sep 08:15:20 08:18:45 23° 290° (WNW) 08:22:08 145.90 MHz
AO-7 03 Sep 08:23:22 08:26:41 13° 310° (NW) 08:30:01 29.400 - 29.500 MHz
STRAND 1 03 Sep 08:50:04 08:52:51 15° 268° (W) 08:55:38 ?
ISS 03 Sep 08:58:01 09:00:59 31° 132° (SE) 09:03:57 145.800 FM
RS-15 03 Sep 08:58:23 09:09:09 55° 307° (NW) 09:19:51 29.354 - 29.394 USB, Beacon 29.352 USB
Saudisat 1A 03 Sep 09:06:30 09:07:25 11° 253° (WSW) 09:08:21 436.775 MHz
JAS-2 03 Sep 09:06:59 09:09:38 14° 296° (WNW) 09:12:23 435.800 - 435.900 CW/SSB, 435.910 FM
KITSAT 1 03 Sep 09:32:04 09:39:59 63° 247° (WSW) 09:47:53 435.175 FM
SO-67 03 Sep 09:43:47 09:44:32 11° 292° (WNW) 09:45:18 435.3500 MHz FM
HO-68 03 Sep 09:47:42 09:54:12 36° 98° (E) 10:00:39 435.675 MHz FM
UKube-1 03 Sep 10:18:33 10:22:21 29° 97° (E) 10:26:08 145.840 MHz, 145.915 MHz
Oscar 11 03 Sep 10:21:01 10:24:19 21° 95° (E) 10:27:36 145.825 FM, Beacon 2401.500 USB
ISS 03 Sep 10:34:54 10:37:43 25° 328° (NNW) 10:40:31 145.800 FM
FUNcube-1 03 Sep 10:57:05 11:00:37 22° 95° (E) 11:04:09 145.950 - 145.970 MHz USB
PANSAT 03 Sep 11:04:27 11:07:23 21° 169° (S) 11:10:19 not established
RS-15 03 Sep 11:17:59 11:24:45 18° 336° (NNW) 11:31:34 29.354 - 29.394 USB, Beacon 29.352 USB
HO-68 03 Sep 11:35:19 11:41:50 39° 294° (WNW) 11:48:20 435.675 MHz FM
UKube-1 03 Sep 11:55:05 11:58:21 21° 292° (WNW) 12:01:37 145.840 MHz, 145.915 MHz
Oscar 11 03 Sep 11:56:42 12:00:29 29° 289° (WNW) 12:04:15 145.825 FM, Beacon 2401.500 USB
SO-50 03 Sep 12:22:15 12:27:01 60° 58° (ENE) 12:31:48 436.795 FM
FUNcube-1 03 Sep 12:32:56 12:36:59 32° 289° (WNW) 12:41:03 145.950 - 145.970 MHz USB
MaSat-1 03 Sep 12:35:07 12:39:46 49° 108° (ESE) 12:44:43 437.345 MHz
PANSAT 03 Sep 12:43:51 12:47:05 25° 182° (S) 12:50:19 not established
JAS-1B 03 Sep 12:47:09 12:50:52 13° 55° (NE) 12:54:24 435.800 - 435.900 CW/SSB
AO-Echo 03 Sep 13:23:15 13:24:44 11° 63° (ENE) 13:26:12 ?
Oscar 19 03 Sep 13:24:02 13:28:20 27° 68° (ENE) 13:32:40 437.125 CW, 437.150 USB
RS-15 03 Sep 13:38:21 13:43:48 14° 15° (NNE) 13:49:18 29.354 - 29.394 USB, Beacon 29.352 USB
Oscar 16 03 Sep 13:58:41 14:03:46 63° 74° (ENE) 14:08:54 437.025 USB, Beacon 2401.1428
UOSAT-12 03 Sep 14:00:08 14:04:41 46° 56° (NE) 14:09:09 437.025 FM, 437.400 FM
SO-50 03 Sep 14:04:38 14:07:04 14° 252° (WSW) 14:09:31 436.795 FM
ITAMSAT 1 03 Sep 14:05:20 14:09:45 30° 69° (ENE) 14:14:11 435.822 SSB
MaSat-1 03 Sep 14:13:21 14:17:03 20° 305° (NW) 14:20:51 437.345 MHz
Uribyol 2 03 Sep 14:13:53 14:18:36 38° 70° (ENE) 14:23:21 436.500 FM
PANSAT 03 Sep 14:24:14 14:26:45 17° 195° (SSW) 14:29:14 not established
JAS-1B 03 Sep 14:30:25 14:40:00 64° 72° (ENE) 14:48:31 435.800 - 435.900 CW/SSB
AO-27 03 Sep 14:34:41 14:39:45 59° 73° (ENE) 14:44:50 436.795 MHz FM
TMSAT-1 03 Sep 14:36:24 14:40:03 19° 65° (ENE) 14:43:43 436.925 FM
AO-Echo 03 Sep 14:57:54 15:02:54 74° 258° (WSW) 15:07:47 ?
Oscar 19 03 Sep 15:02:58 15:07:31 31° 263° (W) 15:12:07 437.125 CW, 437.150 USB
PCSat 03 Sep 15:08:17 15:08:38 10° 101° (ESE) 15:08:59 145.825 MHz
Gurwin Techsat 1B 03 Sep 15:25:21 15:30:38 79° 75° (ENE) 15:35:58 435.225 FM
ISS 03 Sep 15:29:14 15:31:33 17° 28° (NNE) 15:33:53 145.800 FM
AO-7 03 Sep 15:32:23 15:39:03 28° 59° (ENE) 15:45:43 29.400 - 29.500 MHz
Oscar 16 03 Sep 15:41:08 15:43:30 13° 269° (W) 15:45:53 437.025 USB, Beacon 2401.1428
UOSAT-12 03 Sep 15:41:23 15:44:26 17° 251° (WSW) 15:47:27 437.025 FM, 437.400 FM
ITAMSAT 1 03 Sep 15:44:43 15:49:09 29° 263° (W) 15:53:37 435.822 SSB
RS-15 03 Sep 15:50:25 16:00:38 40° 47° (NE) 16:11:07 29.354 - 29.394 USB, Beacon 29.352 USB
Uosat F 03 Sep 15:53:40 15:57:06 19° 65° (ENE) 16:00:32 435.120 FM
Uribyol 2 03 Sep 15:54:13 15:58:09 22° 265° (W) 16:02:07 436.500 FM
TMSAT-1 03 Sep 16:14:29 16:19:34 48° 260° (W) 16:24:41 436.925 FM
AO-27 03 Sep 16:16:57 16:19:36 14° 268° (W) 16:22:17 436.795 MHz FM
Sapphire 03 Sep 16:17:07 16:22:16 48° 111° (ESE) 16:27:27 437.095 MHz 1200 baud AX-25 AFSK
JAS-1B 03 Sep 16:22:31 16:30:38 30° 265° (W) 16:38:10 435.800 - 435.900 CW/SSB
PCSat 03 Sep 16:45:50 16:51:14 85° 296° (WNW) 16:56:41 145.825 MHz
ISS 03 Sep 17:05:15 17:08:31 56° 224° (SW) 17:11:47 145.800 FM
Gurwin Techsat 1B 03 Sep 17:10:21 17:11:08 10° 270° (W) 17:11:55 435.225 FM
AO-7 03 Sep 17:23:00 17:31:13 63° 256° (WSW) 17:39:29 29.400 - 29.500 MHz
Uosat F 03 Sep 17:30:45 17:35:31 44° 260° (W) 17:40:18 435.120 FM
JAS-2 03 Sep 17:31:01 17:35:15 21° 67° (ENE) 17:39:14 435.800 - 435.900 CW/SSB, 435.910 FM
OPAL 03 Sep 17:31:12 17:36:03 38° 100° (E) 17:40:50 ?
Hamsat 03 Sep 17:31:19 17:33:43 15° 67° (ENE) 17:36:07 145.90 MHz
Sapphire 03 Sep 18:01:44 18:05:55 22° 308° (NW) 18:10:08 437.095 MHz 1200 baud AX-25 AFSK
RS-15 03 Sep 18:02:35 18:13:26 60° 248° (WSW) 18:24:45 29.354 - 29.394 USB, Beacon 29.352 USB
PCSat 03 Sep 18:33:09 18:35:27 13° 315° (NW) 18:37:46 145.825 MHz
Hamsat 03 Sep 19:05:09 19:09:16 44° 261° (W) 19:13:26 145.90 MHz
OPAL 03 Sep 19:10:33 19:14:40 24° 295° (WNW) 19:18:45 ?
JAS-2 03 Sep 19:14:14 19:20:06 47° 260° (W) 19:25:24 435.800 - 435.900 CW/SSB, 435.910 FM
STRAND 1 03 Sep 19:22:20 19:26:21 23° 95° (E) 19:30:21 ?
SO-67 03 Sep 20:11:41 20:15:01 44° 261° (W) 20:18:21 435.3500 MHz FM
HO-68 03 Sep 20:14:57 20:20:02 22° 60° (ENE) 20:25:07 435.675 MHz FM
STRAND 1 03 Sep 21:00:56 21:05:34 36° 290° (WNW) 21:10:12 ?
UKube-1 03 Sep 21:12:16 21:15:22 20° 68° (ENE) 21:18:28 145.840 MHz, 145.915 MHz
Oscar 11 03 Sep 21:15:07 21:17:01 13° 65° (ENE) 21:18:55 145.825 FM, Beacon 2401.500 USB
Saudisat 1A 03 Sep 21:28:23 21:32:14 31° 113° (ESE) 21:36:07 436.775 MHz
FUNcube-1 03 Sep 21:53:01 21:54:40 12° 65° (ENE) 21:56:21 145.950 - 145.970 MHz USB
HO-68 03 Sep 21:59:58 22:07:04 68° 257° (WSW) 22:14:11 435.675 MHz FM
KITSAT 1 03 Sep 22:03:39 22:09:58 26° 104° (ESE) 22:16:16 435.175 FM
MaSat-1 03 Sep 22:32:16 22:36:33 56° 63° (ENE) 22:40:13 437.345 MHz
UKube-1 03 Sep 22:47:27 22:51:20 32° 262° (W) 22:55:14 145.840 MHz, 145.915 MHz
Oscar 11 03 Sep 22:48:30 22:52:43 51° 260° (W) 22:56:59 145.825 FM, Beacon 2401.500 USB
Saudisat 1A 03 Sep 23:08:11 23:11:48 25° 309° (NW) 23:15:27 436.775 MHz
FUNcube-1 03 Sep 23:26:30 23:30:34 50° 261° (W) 23:34:44 145.950 - 145.970 MHz USB
KITSAT 1 03 Sep 23:56:44 00:04:43 63° 301° (WNW) 00:12:45 435.175 FM
Sapphire 04 Sep 01:08:07 01:12:28 24° 52° (NE) 01:16:47 437.095 MHz 1200 baud AX-25 AFSK
PCSat 04 Sep 01:36:34 01:41:45 43° 58° (ENE) 01:46:53 145.825 MHz
Oscar 19 04 Sep 01:40:24 01:41:56 11° 90° (E) 01:43:26 437.125 CW, 437.150 USB
KITSAT 1 04 Sep 01:57:30 02:01:53 15° 324° (NW) 02:06:16 435.175 FM
Oscar 16 04 Sep 02:13:37 02:18:01 27° 96° (E) 02:22:24 437.025 USB, Beacon 2401.1428
ITAMSAT 1 04 Sep 02:22:30 02:24:38 12° 91° (E) 02:26:46 435.822 SSB
JAS-1B 04 Sep 02:23:39 02:26:23 13° 88° (E) 02:29:02 435.800 - 435.900 CW/SSB
